Regional Weather Roundup
Issued by NWS

Home | Current Version | Previous Version | Text Only | Print | Product List | Glossary On
Versions: 1 2 3 4 5 6 7 8 9 10 11 12 13 14 15 16 17 18 19 20 21 22 23 24 25 26 27
000
ASUS42 KTBW 232317
RWRFL
FLORIDA REGIONAL WEATHER ROUNDUP
NATIONAL WEATHER SERVICE TAMPA BAY RUSKIN FL
700 PM EDT SUN APR 23 2017

NOTE: "FAIR" INDICATES FEW OR NO CLOUDS BELOW 12,000 FEET WITH NO
SIGNIFICANT WEATHER AND/OR OBSTRUCTIONS TO VISIBILITY.

FLZ001>010-012>015-112-114-115-240000-
PANHANDLE FLORIDA

CITY           SKY/WX    TMP DP  RH WIND       PRES   REMARKS
PENSACOLA      MOSUNNY   74  52  46 NW14      29.79S
PENSACOLA NAS  MOSUNNY   72  51  47 NW9       29.78S
MILTON NAS     LGT RAIN  70  52  52 NW12      29.79S
CRESTVIEW      PTSUNNY   71  53  52 NW7       29.80S
DUKE FIELD     FAIR      70  53  55 NW6       29.78R
VALPARAISO     PTSUNNY   71  54  55 NW12      29.78S
MARY ESTHER    MOSUNNY   71  46  41 NW9       29.78R
TRI COUNTY     CLOUDY    69  58  67 VRB3      29.79R
PANAMA CITY    CLOUDY    69  61  75 NW9       29.77S
TYNDALL AFB    DRIZZLE   73  64  73 W13       29.77R
APALACHICOLA   CLOUDY    74  71  91 W9        29.76F

STATION/POSITION SKY/WX   TEMP    WIND        PRES    WAVE   SWELL
                          AIR SEA DIR/SP/G            HT/PER HT/PER
                          (F)     (DEG/KT/KT) (MB)    (FT/S) (FT/S)
30.1N   87.6W              70 76  330/ 14/ 19 1008.7F   2/ 4
29.2N   88.2W              69 75  310/ 17/ 21 1010.3
28.8N   86.0W              72 75  310/ 17/ 19 1008.6R   3/ 4   2/ 8
PANAMA CITY BEAC           70 77  360/  8/ 11 1008.4S
TOWER C                    73     220/ 14/ 15 1008.7F
28.5N   84.5W              74 76  230/ 10/ 12 1008.4F   1/ 5   2/ 5

$$
FLZ011-016>038-118-127-128-134-139-239-240000-
NORTH FLORIDA

CITY           SKY/WX    TMP DP  RH WIND       PRES   REMARKS
MARIANNA       CLOUDY    68  61  78 NW8       29.76S
TALLAHASSEE    CLOUDY    77  63  61 SW10      29.75R
PERRY          SUNNY     78  64  61 SW15      29.76S
CROSS CITY     SUNNY     79  66  65 W10       29.75F
LAKE CITY      FAIR      81  64  57 W14       29.73F
GAINESVILLE    MOSUNNY   82  64  54 S7        29.74R
WILLISTON      SUNNY     84  64  51 W10       29.75R
PALATKA        FAIR      82  66  57 SE9       29.74S
MAYPORT NAS    SUNNY     74  70  87 SE18G28   29.74F
JACKSONVILLE   PTSUNNY   80  66  62 SE18G25   29.71F
JAX NAS        PTSUNNY   81  67  62 SE15      29.74S
FERNANDINA BEA FAIR      79  72  78 SE16G23   29.72F
ST AUGUSTINE   MOSUNNY   76  68  76 SE17      29.76F
PALM COAST     SUNNY     79  66  65 SE16      29.76S

STATION/POSITION SKY/WX   TEMP    WIND        PRES    WAVE   SWELL
                          AIR SEA DIR/SP/G            HT/PER HT/PER
                          (F)     (DEG/KT/KT) (MB)    (FT/S) (FT/S)
SHELL POINT      NOT AVBL
KEATON BEACH               74     220/ 10/ 11 1007.5F
CEDAR KEY                  76     280/  7/ 10 1008.3S
FERNANDINA                 77 74  140/ 10/ 17 1007.4F
30.7N   81.3W                 73                N/A     3/13   2/13
MAYPORT                    76 75  150/  8/ 18 1007.4F
31.4N   80.9W              74 73  150/ 16/ 17 1006.8F   3/13   2/13
ST AUGUSTINE               74 77  150/ 18/ 20 1008.5F

$$
FLZ040-043>046-052-053-057-058-063-144-240000-
INTERIOR CENTRAL FLORIDA

CITY           SKY/WX    TMP DP  RH WIND       PRES   REMARKS
OCALA          MOSUNNY   77  68  73 W5        29.76F
THE VILLAGES     N/A     84  66  54 MISG      29.65S
LEESBURG       MOSUNNY   84  65  52 SE9       29.76S
SANFORD        PTSUNNY   83  63  50 SE15      29.76S
ORLANDO EXEC   MOSUNNY   83  63  50 SE12      29.76S
ORLANDO INTL   PTSUNNY   82  64  54 E14       29.76F
KISSIMMEE      CLOUDY    83  64  52 SE9       29.78S
WINTER HAVEN   SUNNY     83  61  47 SE10      29.78S
LAKELAND       MOSUNNY   84  63  48 SE7       29.76S
BARTOW         FAIR      81  63  54 SE7       29.77R
OKEECHOBEE     PTSUNNY   77  64  65 E6        29.79S

$$
FLZ041-047-054-059-064-141-147-240000-
EAST CENTRAL FLORIDA

CITY           SKY/WX    TMP DP  RH WIND       PRES   REMARKS
ORMOND BEACH   SUNNY     77  68  73 SE12      29.77F
DAYTONA BEACH  PTSUNNY   78  68  71 SE10      29.77S
DELAND         MOSUNNY   82  66  57 SE12      29.76R
NEW SMYRNA BEA MOSUNNY   77  68  73 SE15      29.79S
JFK SPACE CTR  HAZE      76  68  74 SE12      29.78S VSB<1/4
TITUSVILLE     MOSUNNY   75  66  73 SE8       29.80S
CAPE CANAVERAL CLOUDY    76  67  73 SE12      29.78S
PATRICK AFB    CLOUDY    76  68  76 SE14      29.79S
MELBOURNE      CLOUDY    77  68  73 SE12      29.79S
VERO BEACH     PTSUNNY   76  68  76 E7        29.79S
FT PIERCE      CLOUDY    75  69  81 E8        29.78F
STUART         PTSUNNY   75  68  78 E12       29.79S

STATION/POSITION SKY/WX   TEMP    WIND        PRES    WAVE   SWELL
                          AIR SEA DIR/SP/G            HT/PER HT/PER
                          (F)     (DEG/KT/KT) (MB)    (FT/S) (FT/S)
28.5N   80.2W              75 77  140/ 12/ 14 1009.8
28.9N   78.5W              75 79  130/ 17/ 21 1009.8S   6/ 6   3/12
TRIDENT PIER               75 78  130/  7/ 10 1010.3F
28.4N   80.5W                 76                N/A     3/13   2/13
27.5N   80.2W                 78                N/A     5/13   2/13

$$
FLZ050-056-061-142-242-148-248-149-249-151-251-155-255-
160-260-240000-
WEST CENTRAL FLORIDA

CITY           SKY/WX    TMP DP  RH WIND       PRES   REMARKS
CRYSTAL RIVER  FAIR      77  68  73 W13       29.77S
INVERNESS      FAIR      79  68  69 W3        29.77R
BROOKSVILLE    SUNNY     80  66  62 W10       29.78R
CLEARWATER AIR FAIR      77  68  73 NW10G17   29.78R
ST PETE CLEARW SUNNY     79  66  64 NW14      29.77S
TAMPA INTL     MOSUNNY   82  65  56 W13G24    29.77S
TAMPA EXEC     PTSUNNY   81  64  57 W3        29.78S
PLANT CITY     PTSUNNY   86  63  45 S5        29.78R
MACDILL AFB    MOSUNNY   81  68  64 NW7       29.77R
PETER O KNIGHT CLOUDY    82  68  61 NW5       29.78R
ST PETERSBURG  SUNNY     80  66  62 NW7       29.75S
SARASOTA       SUNNY     80  66  62 NW14      29.76S
VENICE         PTSUNNY   79  72  78 NW12      29.78S

STATION/POSITION SKY/WX   TEMP    WIND        PRES    WAVE   SWELL
                          AIR SEA DIR/SP/G            HT/PER HT/PER
                          (F)     (DEG/KT/KT) (MB)    (FT/S) (FT/S)
27.3N   84.2W                 77                N/A     2/ 5
CLEARWATER BEACH           76 80  300/ 11/ 14 1008.5S
MIDDLE TAMPA BAY           77     320/ 14/ 16 1008.4F
VENICE                     77 77  300/ 10/ 11 1008.1R

$$
FLZ066-069-070-075>078-162-262-165-265-240000-
SOUTHWEST FLORIDA AND KEYS

CITY           SKY/WX    TMP DP  RH WIND       PRES   REMARKS
PUNTA GORDA    SUNNY     81  65  58 E6        29.78S
FT MYERS       CLOUDY    81  68  64 E8        29.76S
SOUTHWEST INTL MOSUNNY   79  65  62 E12       29.77R
NAPLES         MOSUNNY   81  70  69 NE6       29.76S
IMMOKALEE      FAIR      81  66  61 NE8       29.76S
MARATHON       SUNNY     79  74  84 N8        29.75S
KEY WEST NAS   MOSUNNY   79  71  76 N12       29.77R
KEY WEST INTL  MOSUNNY   80  73  79 NW12      29.78R

STATION/POSITION SKY/WX   TEMP    WIND        PRES    WAVE   SWELL
                          AIR SEA DIR/SP/G            HT/PER HT/PER
                          (F)     (DEG/KT/KT) (MB)    (FT/S) (FT/S)
NAPLES                        76   70/  4/  6 1007.7R
26.0N   85.6W              77     340/  4/  8 1009.4
DRY TORTUGAS               76     350/ 12/ 13 1008.8R
SAND KEY                   76     340/ 12/ 14 1008.9R
LONG KEY                   76 78  360/  8/  9 1007.7R
MOLASSES REEF              75 78  360/  8/  8 1007.6R

$$
FLZ067-068-071>074-168-172>174-240000-
SOUTHEAST FLORIDA

CITY           SKY/WX    TMP DP  RH WIND       PRES   REMARKS
W PALM BEACH   CLOUDY    71  70  96 NE5       29.76S
BOCA RATON     PTCLDY    75  72  88 N6        29.74F
FT LAUDER-EXEC CLOUDY    76  69  79 N7        29.73F
FT LAUDERDALE  MOCLDY    74  71  91 NW5       29.73F
POMPANO BEACH  CLOUDY    75  71  87 N9        29.73F
PEMBROKE PINES CLOUDY    75  71  87 NW10      29.75F
OPA LOCKA      CLOUDY   N/A N/A N/A NW5       29.75S
MIAMI          CLOUDY    75  70  84 NW5       29.75S
WEST KENDALL   MOCLDY    76  70  82 NW3       29.75S
HOMESTEAD      PTCLDY    74  72  92 N5        29.74S

STATION/POSITION SKY/WX   TEMP    WIND        PRES    WAVE   SWELL
                          AIR SEA DIR/SP/G            HT/PER HT/PER
                          (F)     (DEG/KT/KT) (MB)    (FT/S) (FT/S)
PORT EVERGLADES            74     320/  4/  8 1006.7F
VIRGINIA KEY                      260/  3/  4 1006.3R
LAKE WORTH                 73 77   10/  6/  8 1008.1F
FOWEY ROCKS                74 77  320/  8/  9 1007.8R
SETTLEMENT POINT           72      60/ 19/ 22 1007.2F

$$





USA.gov is the U.S. government's official web portal to all federal, state and local government web resources and services.